Location: Firdgum
(53.2488°N, 5.5615°E)
Time: 04:07:59
(UTC+00:00)

SMAP - Pass Details

Date: 08 December 2019
Orbit: 681 x 684 km, 98.1° (Epoch: 17 January)

Event Time Altitude Azimuth Distance (km) Brightness Sun altitude
Rises 06:28:37 0° 13° (NNE) 3,062 6.3 -9.7°
Reaches altitude 10° 06:30:53 10° 11° (N) 2,141 5.5 -9.4°
Maximum altitude 06:35:32 70° 289° (WNW) 733 3.0 -8.7°
Drops below altitude 10° 06:40:09 10° 206° (SSW) 2,123 5.6 -8.1°
Sets 06:42:23 0° 204° (SSW) 3,034 6.5 -7.8°
